Home   Weather   Dushanbe   Past weeks

Flag for Tajikistan Past Weather in Dushanbe, Tajikistan — Yesterday and Last 2 Weeks

Now
75 °F

Clear.


Feels Like: 77 °F
Forecast: 59 / 88 °F
Wind: 3 mph from East

Location: Dushanbe Airport

Current Time: Sep 26, 2016 at 8:49:35 AM

Latest Report: Sep 26, 2016 at 8:30 AM


Visibility: 4 mi

Pressure: 29.98 "Hg (27.24 "Hg at 832m altitude)

Humidity: 27%

Dew Point: 39 °F

Location of DushanbeLocation

Past Weather in Dushanbe — Graph

°F

Dushanbe Temperature Yesterday

Maximum temperature yesterday: 93 °F (at 3:00 PM)
Minimum temperature yesterday: 59 °F (at 5:00 AM)
Average temperature yesterday: 75 °F

High & Low Weather Summary for the Past Weeks

 TemperatureHumidityPressure
High97 °F (Sep 20, 3:30 PM)63% (Sep 12, 6:00 AM)30.09 "Hg (Sep 12, 6:00 AM)
Low55 °F (Sep 14, 4:30 AM)10% (Sep 16, 2:00 PM)29.77 "Hg (Sep 24, 4:30 PM)
Average76 °F33%29.93 "Hg
* Reported Sep 11 7:00 AM — Sep 26 7:30 AM, Dushanbe, Weather by CustomWeather, © 2016

Note: Actual official high and low records may vary slightly from our data, if they occured in-between our weather recording intervals... More about our weather records

Advertising

Dushanbe Weather History for the Previous 24 Hours

Scroll right to see more
 ConditionsComfort  
Time TempWeatherWind HumidityBarometerVisibility
7:30 AM
Mon, Sep 26
66 °FClear.1 mph46%29.98 "Hg6 mi
7:00 AM63 °FClear.1 mph49%29.98 "HgN/A
6:30 AM63 °FClear.1 mph45%29.98 "HgN/A
6:00 AM61 °FClear.No wind48%29.98 "HgN/A
5:30 AM64 °FClear.3 mph43%29.95 "HgN/A
5:00 AM63 °FClear.No wind42%29.95 "HgN/A
4:30 AM64 °FClear.3 mph43%29.95 "HgN/A
4:00 AM66 °FClear.3 mph37%29.95 "HgN/A
3:30 AM64 °FClear.1 mph43%29.95 "HgN/A
3:00 AM64 °FClear.1 mph43%29.95 "HgN/A
2:30 AM64 °FClear.1 mph46%29.95 "HgN/A
2:00 AM66 °FClear.No wind40%29.95 "HgN/A
1:30 AM66 °FClear.1 mph37%29.95 "HgN/A
1:00 AM64 °FClear.No wind43%29.95 "HgN/A
12:30 AM66 °FClear.1 mph40%29.95 "HgN/A
12:00 AM68 °FClear.1 mph40%29.95 "HgN/A
11:30 PM
Sun, Sep 25
68 °FClear.1 mph35%29.95 "HgN/A
11:00 PM68 °FClear.1 mph40%29.95 "HgN/A
10:30 PM70 °FClear.No wind38%29.95 "HgN/A
10:00 PM72 °FClear.1 mph36%29.95 "HgN/A
9:30 PM70 °FClear.1 mph38%29.95 "Hg6 mi
9:00 PM72 °FClear.3 mph41%29.95 "Hg6 mi
8:30 PM73 °FClear.3 mph31%29.95 "Hg6 mi
8:00 PM77 °FClear.1 mph22%29.92 "HgN/A
7:30 PM81 °FClear.6 mph20%29.92 "Hg6 mi
7:00 PM81 °FClear.6 mph21%29.89 "Hg5 mi
6:30 PM84 °FClear.6 mph20%29.89 "Hg5 mi
6:00 PM84 °FClear.6 mph19%29.89 "HgN/A
5:30 PM86 °FClear.6 mph18%29.89 "HgN/A
5:00 PM90 °FClear.8 mph15%29.86 "HgN/A
4:30 PM90 °FClear.8 mph15%29.86 "HgN/A
4:00 PM91 °FClear.6 mph13%29.89 "HgN/A
3:30 PM91 °FClear.6 mph13%29.89 "HgN/A
3:00 PM93 °FClear.3 mph11%29.89 "HgN/A
2:30 PM91 °FClear.6 mph13%29.89 "HgN/A
2:00 PM91 °FClear.1 mph13%29.89 "HgN/A
1:30 PM91 °FClear.3 mph13%29.89 "HgN/A
1:00 PM91 °FClear.3 mph13%29.92 "HgN/A
12:30 PM90 °FClear.3 mph14%29.92 "HgN/A
12:00 PM88 °FClear.3 mph18%29.92 "HgN/A
11:30 AM86 °FClear.1 mph25%29.92 "HgN/A
11:00 AM86 °FClear.1 mph25%29.92 "HgN/A
10:30 AM82 °FClear.3 mph26%29.92 "HgN/A
10:00 AM79 °FClear.1 mph30%29.92 "HgN/A
9:30 AM77 °FClear.3 mph34%29.92 "Hg4 mi
9:00 AM73 °FClear.3 mph36%29.92 "Hg4 mi
8:30 AM72 °FClear.No wind41%29.92 "Hg4 mi
8:00 AM70 °FClear.1 mph33%29.89 "HgN/A
Weather by CustomWeather, © 2016

See weather overviewHow to use our weather pages